Time,TemperatureF,DewpointF,PressureIn,WindDirection,WindDirectionDegrees,WindSpeedMPH,WindSpeedGustMPH,Humidity,HourlyPrecipIn,Conditions,Clouds,dailyrainin,SoftwareType,DateUTC
2013-04-20 00:03:00,67.0,-99.9,29.88,SSW,193,12.0,13.0,-999,-99.99,,,-99.99,,2013-04-20 04:03:00,
2013-04-20 00:12:00,66.0,-99.9,29.90,SW,219,15.0,17.0,-999,-99.99,,,-99.99,,2013-04-20 04:12:00,
2013-04-20 00:23:00,66.0,-99.9,29.89,SSW,205,16.0,17.0,-999,-99.99,,,-99.99,,2013-04-20 04:23:00,
2013-04-20 00:33:00,65.0,-99.9,29.89,SSW,197,15.0,16.0,-999,-99.99,,,-99.99,,2013-04-20 04:33:00,
2013-04-20 00:43:00,65.0,-99.9,29.88,SSW,196,13.0,13.0,-999,-99.99,,,-99.99,,2013-04-20 04:43:00,
2013-04-20 00:53:00,64.0,-99.9,29.89,South,184,16.0,18.0,-999,-99.99,,,-99.99,,2013-04-20 04:53:00,
2013-04-20 01:02:00,65.0,-99.9,29.87,SSW,200,18.0,19.0,-999,-99.99,,,-99.99,,2013-04-20 05:02:00,
2013-04-20 01:12:00,65.0,-99.9,29.86,SSW,211,15.0,16.0,-999,-99.99,,,-99.99,,2013-04-20 05:12:00,
2013-04-20 01:22:00,66.0,-99.9,29.87,SW,223,16.0,18.0,-999,-99.99,,,-99.99,,2013-04-20 05:22:00,
2013-04-20 01:32:00,67.0,-99.9,29.86,SW,227,11.0,14.0,-999,-99.99,,,-99.99,,2013-04-20 05:32:00,
2013-04-20 01:43:00,66.0,-99.9,29.87,SSW,206,15.0,16.0,-999,-99.99,,,-99.99,,2013-04-20 05:43:00,
2013-04-20 01:52:00,65.0,-99.9,29.87,SSW,196,15.0,16.0,-999,-99.99,,,-99.99,,2013-04-20 05:52:00,
2013-04-20 02:02:00,65.0,-99.9,29.87,SW,231,12.0,14.0,-999,-99.99,,,-99.99,,2013-04-20 06:02:00,
2013-04-20 02:12:00,67.0,-99.9,29.88,SW,234,11.0,15.0,-999,-99.99,,,-99.99,,2013-04-20 06:12:00,
2013-04-20 02:22:00,67.0,-99.9,29.87,SW,232,10.0,15.0,-999,-99.99,,,-99.99,,2013-04-20 06:22:00,
2013-04-20 02:32:00,67.0,-99.9,29.88,SW,225,13.0,15.0,-999,-99.99,,,-99.99,,2013-04-20 06:32:00,
2013-04-20 02:42:00,67.0,-99.9,29.87,SW,236,10.0,12.0,-999,-99.99,,,-99.99,,2013-04-20 06:42:00,
2013-04-20 02:52:00,67.0,-99.9,29.87,WSW,242,9.0,12.0,-999,-99.99,,,-99.99,,2013-04-20 06:52:00,
2013-04-20 03:02:00,67.0,-99.9,29.87,West,268,8.0,11.0,-999,-99.99,,,-99.99,,2013-04-20 07:02:00,
2013-04-20 03:11:00,67.0,-99.9,29.87,WSW,255,7.0,9.0,-999,-99.99,,,-99.99,,2013-04-20 07:11:00,
2013-04-20 03:22:00,67.0,-99.9,29.87,WSW,248,9.0,13.0,-999,-99.99,,,-99.99,,2013-04-20 07:22:00,
2013-04-20 03:32:00,67.0,-99.9,29.87,WSW,252,8.0,13.0,-999,-99.99,,,-99.99,,2013-04-20 07:32:00,
2013-04-20 03:42:00,67.0,-99.9,29.87,WSW,258,13.0,18.0,-999,-99.99,,,-99.99,,2013-04-20 07:42:00,
2013-04-20 03:52:00,67.0,-99.9,29.87,WSW,242,8.0,10.0,-999,-99.99,,,-99.99,,2013-04-20 07:52:00,
2013-04-20 04:02:00,67.0,-99.9,29.87,SW,236,8.0,10.0,-999,-99.99,,,-99.99,,2013-04-20 08:02:00,
2013-04-20 04:11:00,67.0,-99.9,29.87,SW,233,6.0,7.0,-999,-99.99,,,-99.99,,2013-04-20 08:11:00,
2013-04-20 04:22:00,67.0,-99.9,29.87,SW,235,7.0,10.0,-999,-99.99,,,-99.99,,2013-04-20 08:22:00,
2013-04-20 04:32:00,67.0,-99.9,29.88,WSW,251,13.0,18.0,-999,-99.99,,,-99.99,,2013-04-20 08:32:00,
2013-04-20 04:42:00,67.0,-99.9,29.87,WNW,297,8.0,12.0,-999,-99.99,,,-99.99,,2013-04-20 08:42:00,
2013-04-20 04:52:00,66.0,-99.9,29.87,WNW,283,12.0,17.0,-999,-99.99,,,-99.99,,2013-04-20 08:52:00,
2013-04-20 05:02:00,65.0,-99.9,29.88,West,280,14.0,19.0,-999,-99.99,,,-99.99,,2013-04-20 09:02:00,
2013-04-20 05:12:00,64.0,-99.9,29.88,WNW,293,16.0,24.0,-999,-99.99,,,-99.99,,2013-04-20 09:12:00,
2013-04-20 05:22:00,64.0,-99.9,29.88,West,277,12.0,17.0,-999,-99.99,,,-99.99,,2013-04-20 09:22:00,
2013-04-20 05:33:00,62.0,-99.9,29.90,NW,306,15.0,21.0,-999,-99.99,,,-99.99,,2013-04-20 09:33:00,
2013-04-20 05:43:00,61.0,-99.9,29.91,WNW,296,11.0,21.0,-999,-99.99,,,-99.99,,2013-04-20 09:43:00,
2013-04-20 05:53:00,58.0,-99.9,29.91,NW,304,17.0,23.0,-999,-99.99,,,-99.99,,2013-04-20 09:53:00,
2013-04-20 06:03:00,57.0,-99.9,29.91,NW,306,14.0,21.0,-999,-99.99,,,-99.99,,2013-04-20 10:03:00,
2013-04-20 06:13:00,56.0,-99.9,29.93,WNW,288,13.0,18.0,-999,-99.99,,,-99.99,,2013-04-20 10:13:00,
2013-04-20 06:23:00,56.0,-99.9,29.93,WNW,301,13.0,17.0,-999,-99.99,,,-99.99,,2013-04-20 10:23:00,
2013-04-20 06:33:00,56.0,-99.9,29.94,WNW,291,6.0,10.0,-999,-99.99,,,-99.99,,2013-04-20 10:33:00,
2013-04-20 06:42:00,56.0,-99.9,29.94,NW,307,7.0,11.0,-999,-99.99,,,-99.99,,2013-04-20 10:42:00,
2013-04-20 06:53:00,56.0,-99.9,29.94,WNW,286,8.0,11.0,-999,-99.99,,,-99.99,,2013-04-20 10:53:00,
2013-04-20 07:03:00,55.0,-99.9,29.95,WNW,282,4.0,6.0,-999,-99.99,,,-99.99,,2013-04-20 11:03:00,
2013-04-20 07:12:00,55.0,-99.9,29.96,West,276,4.0,5.0,-999,-99.99,,,-99.99,,2013-04-20 11:12:00,
2013-04-20 07:23:00,55.0,-99.9,29.96,West,275,5.0,7.0,-999,-99.99,,,-99.99,,2013-04-20 11:23:00,
2013-04-20 07:32:00,55.0,-99.9,29.98,West,279,5.0,8.0,-999,-99.99,,,-99.99,,2013-04-20 11:32:00,
2013-04-20 07:42:00,55.0,-99.9,30.00,West,274,5.0,7.0,-999,-99.99,,,-99.99,,2013-04-20 11:42:00,
2013-04-20 07:53:00,55.0,-99.9,30.00,West,265,5.0,7.0,-999,-99.99,,,-99.99,,2013-04-20 11:53:00,
2013-04-20 08:02:00,56.0,-99.9,30.01,West,280,6.0,8.0,-999,-99.99,,,-99.99,,2013-04-20 12:02:00,
2013-04-20 08:11:00,56.0,-99.9,30.01,WNW,293,5.0,7.0,-999,-99.99,,,-99.99,,2013-04-20 12:11:00,
2013-04-20 08:23:00,56.0,-99.9,30.01,WNW,300,7.0,11.0,-999,-99.99,,,-99.99,,2013-04-20 12:23:00,
2013-04-20 08:32:00,56.0,-99.9,30.01,NW,304,7.0,11.0,-999,-99.99,,,-99.99,,2013-04-20 12:32:00,
2013-04-20 08:42:00,56.0,-99.9,30.02,NW,317,9.0,13.0,-999,-99.99,,,-99.99,,2013-04-20 12:42:00,
2013-04-20 08:52:00,56.0,-99.9,30.02,WNW,301,8.0,13.0,-999,-99.99,,,-99.99,,2013-04-20 12:52:00,
2013-04-20 09:02:00,56.0,-99.9,30.01,NW,321,12.0,15.0,-999,-99.99,,,-99.99,,2013-04-20 13:02:00,
2013-04-20 09:11:00,56.0,-99.9,30.01,NNW,331,12.0,16.0,-999,-99.99,,,-99.99,,2013-04-20 13:11:00,
2013-04-20 09:22:00,56.0,-99.9,30.02,NNW,340,17.0,22.0,-999,-99.99,,,-99.99,,2013-04-20 13:22:00,
2013-04-20 09:32:00,56.0,-99.9,30.03,North,2,17.0,23.0,-999,-99.99,,,-99.99,,2013-04-20 13:32:00,
2013-04-20 09:42:00,55.0,-99.9,30.04,North,8,15.0,18.0,-999,-99.99,,,-99.99,,2013-04-20 13:42:00,
2013-04-20 09:52:00,55.0,-99.9,30.06,North,9,15.0,20.0,-999,-99.99,,,-99.99,,2013-04-20 13:52:00,
2013-04-20 10:02:00,55.0,-99.9,30.06,North,8,17.0,21.0,-999,-99.99,,,-99.99,,2013-04-20 14:02:00,
2013-04-20 10:11:00,55.0,-99.9,30.05,North,6,13.0,17.0,-999,-99.99,,,-99.99,,2013-04-20 14:11:00,
2013-04-20 10:22:00,55.0,-99.9,30.06,North,357,15.0,20.0,-999,-99.99,,,-99.99,,2013-04-20 14:22:00,
2013-04-20 10:32:00,54.0,-99.9,30.06,North,5,18.0,23.0,-999,-99.99,,,-99.99,,2013-04-20 14:32:00,
2013-04-20 10:42:00,55.0,-99.9,30.06,North,1,15.0,19.0,-999,-99.99,,,-99.99,,2013-04-20 14:42:00,
2013-04-20 10:52:00,55.0,-99.9,30.08,North,359,12.0,16.0,-999,-99.99,,,-99.99,,2013-04-20 14:52:00,
2013-04-20 11:02:00,55.0,-99.9,30.08,North,352,15.0,18.0,-999,-99.99,,,-99.99,,2013-04-20 15:02:00,
2013-04-20 11:12:00,55.0,-99.9,30.08,NNW,348,14.0,20.0,-999,-99.99,,,-99.99,,2013-04-20 15:12:00,
2013-04-20 11:22:00,55.0,-99.9,30.08,North,356,17.0,22.0,-999,-99.99,,,-99.99,,2013-04-20 15:22:00,
2013-04-20 11:34:00,55.0,-99.9,30.09,North,355,14.0,19.0,-999,-99.99,,,-99.99,,2013-04-20 15:34:00,
2013-04-20 11:43:00,55.0,-99.9,30.09,North,4,17.0,22.0,-999,-99.99,,,-99.99,,2013-04-20 15:43:00,
2013-04-20 11:53:00,55.0,-99.9,30.09,North,352,14.0,19.0,-999,-99.99,,,-99.99,,2013-04-20 15:53:00,
2013-04-20 12:03:00,55.0,-99.9,30.09,North,355,12.0,15.0,-999,-99.99,,,-99.99,,2013-04-20 16:03:00,
2013-04-20 12:12:00,55.0,-99.9,30.09,NNW,345,14.0,18.0,-999,-99.99,,,-99.99,,2013-04-20 16:12:00,
2013-04-20 12:23:00,55.0,-99.9,30.10,NNW,346,14.0,19.0,-999,-99.99,,,-99.99,,2013-04-20 16:23:00,
2013-04-20 12:33:00,55.0,-99.9,30.11,North,353,13.0,16.0,-999,-99.99,,,-99.99,,2013-04-20 16:33:00,
2013-04-20 12:42:00,56.0,-99.9,30.10,North,355,16.0,21.0,-999,-99.99,,,-99.99,,2013-04-20 16:42:00,
2013-04-20 12:53:00,56.0,-99.9,30.10,North,2,15.0,21.0,-999,-99.99,,,-99.99,,2013-04-20 16:53:00,
2013-04-20 13:03:00,56.0,-99.9,30.11,North,6,12.0,14.0,-999,-99.99,,,-99.99,,2013-04-20 17:03:00,
2013-04-20 13:12:00,56.0,-99.9,30.11,North,11,13.0,15.0,-999,-99.99,,,-99.99,,2013-04-20 17:12:00,
2013-04-20 13:23:00,56.0,-99.9,30.11,North,11,13.0,18.0,-999,-99.99,,,-99.99,,2013-04-20 17:23:00,
2013-04-20 13:33:00,56.0,-99.9,30.11,North,1,15.0,20.0,-999,-99.99,,,-99.99,,2013-04-20 17:33:00,
2013-04-20 13:42:00,57.0,-99.9,30.11,North,356,11.0,14.0,-999,-99.99,,,-99.99,,2013-04-20 17:42:00,
2013-04-20 13:52:00,57.0,-99.9,30.10,NNE,15,13.0,17.0,-999,-99.99,,,-99.99,,2013-04-20 17:52:00,
2013-04-20 14:02:00,57.0,-99.9,30.11,North,6,12.0,16.0,-999,-99.99,,,-99.99,,2013-04-20 18:02:00,
2013-04-20 14:13:00,57.0,-99.9,30.11,North,356,11.0,15.0,-999,-99.99,,,-99.99,,2013-04-20 18:13:00,
2013-04-20 14:22:00,57.0,-99.9,30.11,North,5,10.0,13.0,-999,-99.99,,,-99.99,,2013-04-20 18:22:00,
2013-04-20 14:32:00,58.0,-99.9,30.11,NNW,343,13.0,16.0,-999,-99.99,,,-99.99,,2013-04-20 18:32:00,
2013-04-20 14:42:00,57.0,-99.9,30.10,North,357,13.0,16.0,-999,-99.99,,,-99.99,,2013-04-20 18:42:00,
2013-04-20 14:53:00,58.0,-99.9,30.10,NNW,347,10.0,13.0,-999,-99.99,,,-99.99,,2013-04-20 18:53:00,
2013-04-20 15:02:00,58.0,-99.9,30.09,North,351,10.0,13.0,-999,-99.99,,,-99.99,,2013-04-20 19:02:00,
2013-04-20 15:11:00,58.0,-99.9,30.10,NNW,344,11.0,14.0,-999,-99.99,,,-99.99,,2013-04-20 19:11:00,
2013-04-20 15:22:00,58.0,-99.9,30.10,NNW,336,11.0,13.0,-999,-99.99,,,-99.99,,2013-04-20 19:22:00,
2013-04-20 15:32:00,58.0,-99.9,30.10,North,4,11.0,13.0,-999,-99.99,,,-99.99,,2013-04-20 19:32:00,
2013-04-20 15:42:00,58.0,-99.9,30.10,North,354,10.0,14.0,-999,-99.99,,,-99.99,,2013-04-20 19:42:00,
2013-04-20 15:52:00,58.0,-99.9,30.10,North,4,9.0,12.0,-999,-99.99,,,-99.99,,2013-04-20 19:52:00,
2013-04-20 16:02:00,58.0,-99.9,30.10,North,11,11.0,13.0,-999,-99.99,,,-99.99,,2013-04-20 20:02:00,
2013-04-20 16:12:00,58.0,-99.9,30.10,North,4,10.0,12.0,-999,-99.99,,,-99.99,,2013-04-20 20:12:00,
2013-04-20 16:22:00,58.0,-99.9,30.09,North,354,10.0,12.0,-999,-99.99,,,-99.99,,2013-04-20 20:22:00,
2013-04-20 16:32:00,58.0,-99.9,30.09,North,6,11.0,13.0,-999,-99.99,,,-99.99,,2013-04-20 20:32:00,
2013-04-20 16:42:00,58.0,-99.9,30.09,North,11,13.0,16.0,-999,-99.99,,,-99.99,,2013-04-20 20:42:00,
2013-04-20 16:52:00,58.0,-99.9,30.10,North,10,11.0,13.0,-999,-99.99,,,-99.99,,2013-04-20 20:52:00,
2013-04-20 17:02:00,58.0,-99.9,30.10,North,355,10.0,14.0,-999,-99.99,,,-99.99,,2013-04-20 21:02:00,
2013-04-20 17:12:00,58.0,-99.9,30.10,North,355,9.0,11.0,-999,-99.99,,,-99.99,,2013-04-20 21:12:00,
2013-04-20 17:22:00,58.0,-99.9,30.10,North,8,10.0,12.0,-999,-99.99,,,-99.99,,2013-04-20 21:22:00,
2013-04-20 17:33:00,58.0,-99.9,30.10,North,354,10.0,12.0,-999,-99.99,,,-99.99,,2013-04-20 21:33:00,
2013-04-20 17:43:00,58.0,-99.9,30.10,North,1,10.0,12.0,-999,-99.99,,,-99.99,,2013-04-20 21:43:00,
2013-04-20 17:53:00,58.0,-99.9,30.10,North,7,11.0,14.0,-999,-99.99,,,-99.99,,2013-04-20 21:53:00,
2013-04-20 18:03:00,58.0,-99.9,30.11,North,2,7.0,9.0,-999,-99.99,,,-99.99,,2013-04-20 22:03:00,
2013-04-20 18:13:00,58.0,-99.9,30.12,North,9,7.0,9.0,-999,-99.99,,,-99.99,,2013-04-20 22:13:00,
2013-04-20 18:23:00,58.0,-99.9,30.13,NNW,343,8.0,10.0,-999,-99.99,,,-99.99,,2013-04-20 22:23:00,
2013-04-20 18:33:00,58.0,-99.9,30.14,North,354,9.0,10.0,-999,-99.99,,,-99.99,,2013-04-20 22:33:00,
2013-04-20 18:42:00,58.0,-99.9,30.14,NNW,341,8.0,11.0,-999,-99.99,,,-99.99,,2013-04-20 22:42:00,
2013-04-20 18:53:00,58.0,-99.9,30.14,NNW,347,7.0,10.0,-999,-99.99,,,-99.99,,2013-04-20 22:53:00,
2013-04-20 19:02:00,58.0,-99.9,30.12,North,6,9.0,11.0,-999,-99.99,,,-99.99,,2013-04-20 23:02:00,
2013-04-20 19:12:00,57.0,-99.9,30.13,North,1,9.0,11.0,-999,-99.99,,,-99.99,,2013-04-20 23:12:00,
2013-04-20 19:22:00,57.0,-99.9,30.16,NNW,327,8.0,10.0,-999,-99.99,,,-99.99,,2013-04-20 23:22:00,
2013-04-20 19:32:00,57.0,-99.9,30.15,NNW,346,8.0,10.0,-999,-99.99,,,-99.99,,2013-04-20 23:32:00,
2013-04-20 19:42:00,57.0,-99.9,30.14,North,354,8.0,9.0,-999,-99.99,,,-99.99,,2013-04-20 23:42:00,
2013-04-20 19:53:00,57.0,-99.9,30.14,NNW,347,9.0,11.0,-999,-99.99,,,-99.99,,2013-04-20 23:53:00,
2013-04-20 20:01:00,56.0,-99.9,30.15,NNW,345,10.0,11.0,-999,-99.99,,,-99.99,,2013-04-21 00:01:00,
2013-04-20 20:12:00,56.0,-99.9,30.16,NNW,346,9.0,11.0,-999,-99.99,,,-99.99,,2013-04-21 00:12:00,
2013-04-20 20:22:00,56.0,-99.9,30.17,North,351,7.0,8.0,-999,-99.99,,,-99.99,,2013-04-21 00:22:00,
2013-04-20 20:32:00,56.0,-99.9,30.17,North,7,9.0,11.0,-999,-99.99,,,-99.99,,2013-04-21 00:32:00,
2013-04-20 20:42:00,56.0,-99.9,30.17,North,7,9.0,10.0,-999,-99.99,,,-99.99,,2013-04-21 00:42:00,
2013-04-20 20:52:00,56.0,-99.9,30.18,North,4,9.0,10.0,-999,-99.99,,,-99.99,,2013-04-21 00:52:00,
2013-04-20 21:01:00,56.0,-99.9,30.19,North,354,7.0,9.0,-999,-99.99,,,-99.99,,2013-04-21 01:01:00,
2013-04-20 21:12:00,55.0,-99.9,30.20,NNW,345,7.0,10.0,-999,-99.99,,,-99.99,,2013-04-21 01:12:00,
2013-04-20 21:22:00,55.0,-99.9,30.20,North,5,9.0,10.0,-999,-99.99,,,-99.99,,2013-04-21 01:22:00,
2013-04-20 21:32:00,55.0,-99.9,30.22,North,354,8.0,10.0,-999,-99.99,,,-99.99,,2013-04-21 01:32:00,
2013-04-20 21:42:00,55.0,-99.9,30.22,North,5,9.0,10.0,-999,-99.99,,,-99.99,,2013-04-21 01:42:00,
2013-04-20 21:52:00,55.0,-99.9,30.22,North,6,10.0,13.0,-999,-99.99,,,-99.99,,2013-04-21 01:52:00,
2013-04-20 22:02:00,55.0,-99.9,30.22,North,5,11.0,12.0,-999,-99.99,,,-99.99,,2013-04-21 02:02:00,
2013-04-20 22:11:00,55.0,-99.9,30.22,North,11,11.0,13.0,-999,-99.99,,,-99.99,,2013-04-21 02:11:00,
2013-04-20 22:22:00,55.0,-99.9,30.22,NNE,19,10.0,12.0,-999,-99.99,,,-99.99,,2013-04-21 02:22:00,
2013-04-20 22:32:00,55.0,-99.9,30.22,NNE,12,9.0,11.0,-999,-99.99,,,-99.99,,2013-04-21 02:32:00,
2013-04-20 22:42:00,55.0,-99.9,30.23,North,6,11.0,13.0,-999,-99.99,,,-99.99,,2013-04-21 02:42:00,
2013-04-20 22:52:00,55.0,-99.9,30.22,North,7,11.0,12.0,-999,-99.99,,,-99.99,,2013-04-21 02:52:00,
2013-04-20 23:02:00,54.0,-99.9,30.23,NNE,12,8.0,10.0,-999,-99.99,,,-99.99,,2013-04-21 03:02:00,
2013-04-20 23:11:00,54.0,-99.9,30.23,North,6,9.0,11.0,-999,-99.99,,,-99.99,,2013-04-21 03:11:00,
2013-04-20 23:22:00,54.0,-99.9,30.23,North,7,10.0,12.0,-999,-99.99,,,-99.99,,2013-04-21 03:22:00,
2013-04-20 23:33:00,54.0,-99.9,30.23,NNE,13,10.0,12.0,-999,-99.99,,,-99.99,,2013-04-21 03:33:00,
2013-04-20 23:43:00,54.0,-99.9,30.23,NNE,12,10.0,12.0,-999,-99.99,,,-99.99,,2013-04-21 03:43:00,
2013-04-20 23:53:00,53.0,-99.9,30.23,NNE,17,10.0,12.0,-999,-99.99,,,-99.99,,2013-04-21 03:53:00,